Vichy, MO

1:45 PM CST on February 23, 2017 (GMT -0600)
Rolla National

Weather History for KVIH - May, 2014

Change the Weather History Date:

Wednesday, May 7, 2014

  Actual Average Record
Temperature  
Mean Temperature 73 °F 62 °F  
Max Temperature 84 °F 72 °F 90 °F (1966)
Min Temperature 62 °F 51 °F 35 °F (1976)
Degree Days  
Heating Degree Days 0 5  
Month to date heating degree days 37 39  
Since 1 July heating degree days 5389 4757  
Cooling Degree Days 8 2  
Month to date cooling degree days 30 8  
Year to date cooling degree days 42 34  
Growing Degree Days 22 (Base 50)    
Moisture  
Dew Point 59 °F    
Average Humidity 63    
Maximum Humidity 78    
Minimum Humidity 47    
Precipitation  
Precipitation T in 0.17 in 1.77 in (2008)
Month to date precipitation T 1.15  
Year to date precipitation 5.82 12.92  
Sea Level Pressure  
Sea Level Pressure 29.76 in    
Wind  
Wind Speed 15 mph (South)    
Max Wind Speed 23 mph    
Max Gust Speed 29 mph    
Visibility 10 miles    
Events Rain , Thunderstorm    
T = Trace of Precipitation, MM = Missing Value Source: NWS Daily Summary

Daily Weather History Graph

Daily Weather History Graph

Search for Another Location

Airport or City:

Trip Planner

Search our weather history database for the weather conditions in past years. The results will help you decide how hot, cold, wet, or windy it might be!

Date:

Astronomy

May. 07, 2014 Rise Set
Actual Time 6:04 AM CDT 8:03 PM CDT
Civil Twilight 5:35 AM CDT 8:32 PM CDT
Nautical Twilight 4:59 AM CDT 9:08 PM CDT
Astronomical Twilight 4:22 AM CDT 9:46 PM CDT
Moon 1:15 PM CDT (5/7) 1:56 AM CDT (5/7)
Length of Visible Light 14h 57m
Length of Day
13h 59m
First Quarter, 55% of the Moon is Illuminated
May 7
First Quarter
May 14
Full
May 21
Last Quarter
May 28
New
Jun 5
First Quarter

Hourly Weather History & Observations

Time (CDT) Temp. Heat Index Dew Point Humidity Pressure Visibility Wind Dir Wind Speed Gust Speed Precip Events Conditions
12:53 AM 70.0 °F - 55.9 °F 61% 29.70 in 10.0 mi South 17.3 mph - N/A   Clear
1:53 AM 69.1 °F - 55.9 °F 63% 29.69 in 10.0 mi SSW 15.0 mph - N/A   Clear
2:53 AM 68.0 °F - 55.9 °F 65% 29.69 in 10.0 mi South 12.7 mph - N/A   Clear
3:53 AM 68.0 °F - 55.9 °F 65% 29.69 in 10.0 mi South 13.8 mph - N/A   Clear
4:53 AM 66.9 °F - 57.0 °F 70% 29.70 in 10.0 mi South 11.5 mph - N/A   Partly Cloudy
5:53 AM 64.9 °F - 55.9 °F 73% 29.71 in 10.0 mi South 12.7 mph - N/A   Clear
6:53 AM 64.4 °F - 57.2 °F 77% 29.76 in 10.0 mi South 11.5 mph - N/A   Clear
7:53 AM 66.0 °F - 57.9 °F 75% 29.74 in 10.0 mi South 12.7 mph - N/A   Clear
8:24 AM 64.9 °F - 57.9 °F 78% 29.79 in 10.0 mi South 12.7 mph - N/A Thunderstorm Clear
8:53 AM 64.9 °F - 57.9 °F 78% 29.75 in 10.0 mi SSW 6.9 mph - N/A Thunderstorm Mostly Cloudy
9:21 AM 64.0 °F - 57.9 °F 80% 29.81 in 10.0 mi South 10.4 mph - 0.00 in Thunderstorm Thunderstorm
9:53 AM 63.0 °F - 59.0 °F 87% 29.80 in 10.0 mi South 10.4 mph - 0.00 in Rain , Thunderstorm Light Thunderstorms and Rain
10:21 AM 63.0 °F - 59.0 °F 87% 29.81 in 10.0 mi South 10.4 mph - 0.00 in Thunderstorm Scattered Clouds
10:28 AM 64.0 °F - 60.1 °F 87% 29.80 in 10.0 mi SSE 12.7 mph - 0.00 in   Scattered Clouds
10:53 AM 66.0 °F - 60.1 °F 81% 29.76 in 10.0 mi SSE 15.0 mph - 0.00 in   Clear
11:24 AM 69.1 °F - 59.0 °F 70% 29.78 in 10.0 mi SSE 9.2 mph - N/A Thunderstorm Thunderstorm
11:39 AM 72.0 °F - 60.1 °F 66% 29.78 in 10.0 mi SSE 12.7 mph - N/A   Clear
11:53 AM 73.4 °F - 60.8 °F 65% 29.78 in 10.0 mi South 16.1 mph - N/A   Clear
12:53 PM 78.8 °F - 62.6 °F 57% 29.78 in 10.0 mi South 16.1 mph 21.9 mph N/A   Clear
1:53 PM 82.0 °F 82.7 °F 61.0 °F 49% 29.74 in 10.0 mi SSE 12.7 mph 24.2 mph N/A   Clear
2:53 PM 82.9 °F 84.0 °F 63.0 °F 51% 29.73 in 10.0 mi South 18.4 mph 27.6 mph N/A   Clear
3:53 PM 82.9 °F 84.0 °F 63.0 °F 51% 29.72 in 10.0 mi South 16.1 mph - N/A   Clear
4:53 PM 82.4 °F 83.4 °F 62.6 °F 51% 29.76 in 10.0 mi South 21.9 mph 28.8 mph N/A   Clear
5:53 PM 81.0 °F 82.2 °F 63.0 °F 54% 29.73 in 10.0 mi South 18.4 mph 26.5 mph N/A   Clear
6:53 PM 79.0 °F - 62.1 °F 56% 29.75 in 10.0 mi South 18.4 mph - N/A   Clear
7:53 PM 75.9 °F - 61.0 °F 60% 29.76 in 10.0 mi South 18.4 mph - N/A   Clear
8:53 PM 73.9 °F - 61.0 °F 64% 29.78 in 10.0 mi South 18.4 mph 28.8 mph N/A   Clear
9:53 PM 73.0 °F - 61.0 °F 66% 29.79 in 10.0 mi South 11.5 mph - N/A   Clear
10:53 PM 73.0 °F - 60.1 °F 64% 29.79 in 10.0 mi South 17.3 mph - N/A   Clear
11:53 PM 72.0 °F - 60.1 °F 66% 29.80 in 10.0 mi South 13.8 mph 25.3 mph N/A   Clear